| time (UTC) | temp C | wind direction | speed KPH | gust KPH | rain 1hr cm | rain 24hr cm | rain mn cm | humidity % | barometer mb |
| 20260508050221 | 7 | 0 | 0.0 | 0.0 | 0.00 | 0.00 | 0.00 | 92 | 1015.3 |
| 20260508045320 | 7 | 0 | 0.0 | 0.0 | 0.00 | 0.00 | 0.00 | 92 | 1015.1 |
| 20260508044421 | 7 | 0 | 0.0 | 0.0 | 0.00 | 0.00 | 0.00 | 91 | 1015.1 |
| 20260508042622 | 7 | 0 | 0.0 | 0.0 | 0.00 | 0.00 | 0.00 | 91 | 1015.1 |
| 20260508041720 | 7 | 0 | 0.0 | 0.0 | 0.00 | 0.00 | 0.00 | 91 | 1015.1 |
| 20260508040820 | 7 | 0 | 0.0 | 0.0 | 0.00 | 0.00 | 0.00 | 91 | 1015.0 |
| 20260508035921 | 7 | 0 | 0.0 | 0.0 | 0.00 | 0.00 | 0.00 | 90 | 1015.1 |
| 20260508035021 | 7 | 0 | 0.0 | 0.0 | 0.00 | 0.00 | 0.00 | 90 | 1015.1 |
| 20260508034120 | 7 | 0 | 0.0 | 0.0 | 0.00 | 0.00 | 0.00 | 90 | 1015.1 |
| 20260508033220 | 8 | 0 | 0.0 | 0.0 | 0.00 | 0.00 | 0.00 | 90 | 1015.1 |
| 20260508032320 | 8 | 0 | 0.0 | 0.0 | 0.00 | 0.00 | 0.00 | 90 | 1015.1 |
| 20260508031420 | 8 | 0 | 0.0 | 0.0 | 0.00 | 0.00 | 0.00 | 90 | 1015.1 |
| 20260508030521 | 8 | 0 | 0.0 | 3.2 | 0.00 | 0.00 | 0.00 | 90 | 1015.1 |
| 20260508025620 | 8 | 0 | 0.0 | 3.2 | 0.00 | 0.00 | 0.00 | 90 | 1015.1 |
| 20260508024721 | 8 | 0 | 0.0 | 3.2 | 0.00 | 0.00 | 0.00 | 90 | 1015.1 |
| 20260508023820 | 8 | 0 | 0.0 | 3.2 | 0.00 | 0.00 | 0.00 | 90 | 1015.2 |
| 20260508022921 | 8 | 0 | 0.0 | 3.2 | 0.00 | 0.00 | 0.00 | 89 | 1015.1 |
| 20260508022020 | 8 | 0 | 0.0 | 3.2 | 0.00 | 0.00 | 0.00 | 89 | 1015.1 |
| 20260508021121 | 8 | 0 | 0.0 | 0.0 | 0.00 | 0.00 | 0.00 | 89 | 1015.0 |
| 20260508020220 | 8 | 0 | 0.0 | 3.2 | 0.00 | 0.00 | 0.00 | 89 | 1015.1 |
| 20260508015321 | 8 | 0 | 0.0 | 3.2 | 0.00 | 0.00 | 0.00 | 89 | 1015.1 |
| 20260508014420 | 8 | 0 | 0.0 | 0.0 | 0.00 | 0.00 | 0.00 | 89 | 1015.0 |
| 20260508013520 | 8 | 0 | 0.0 | 6.4 | 0.00 | 0.00 | 0.00 | 88 | 1014.9 |
| 20260508012621 | 8 | 0 | 0.0 | 9.7 | 0.00 | 0.00 | 0.00 | 88 | 1014.8 |
| 20260508011721 | 9 | 0 | 0.0 | 9.7 | 0.00 | 0.00 | 0.00 | 88 | 1014.8 |
| 20260508010821 | 9 | 0 | 0.0 | 6.4 | 0.00 | 0.00 | 0.00 | 88 | 1014.7 |
| 20260508005920 | 9 | 0 | 0.0 | 6.4 | 0.00 | 0.00 | 0.00 | 88 | 1014.7 |
| 20260508005020 | 9 | 0 | 0.0 | 3.2 | 0.00 | 0.00 | 0.00 | 88 | 1014.8 |
| 20260508004120 | 9 | 0 | 0.0 | 9.7 | 0.00 | 0.00 | 0.00 | 87 | 1014.9 |
| 20260508003222 | 9 | 0 | 0.0 | 6.4 | 0.00 | 0.00 | 0.00 | 87 | 1015.0 |
| 20260508002320 | 9 | 0 | 0.0 | 3.2 | 0.00 | 0.00 | 0.00 | 87 | 1014.9 |
| 20260508001420 | 9 | 0 | 0.0 | 9.7 | 0.00 | 0.00 | 0.00 | 87 | 1014.9 |
| 20260508000520 | 9 | 0 | 0.0 | 9.7 | 0.00 | 0.00 | 0.00 | 87 | 1015.0 |
| 20260507235621 | 9 | 0 | 0.0 | 6.4 | 0.00 | 0.00 | 0.00 | 87 | 1015.1 |
| 20260507234721 | 9 | 0 | 0.0 | 6.4 | 0.00 | 0.00 | 0.00 | 86 | 1015.1 |
| 20260507233820 | 9 | 0 | 0.0 | 9.7 | 0.00 | 0.00 | 0.00 | 86 | 1015.3 |
| 20260507232921 | 9 | 0 | 0.0 | 12.9 | 0.00 | 0.00 | 0.00 | 86 | 1015.3 |
| 20260507232020 | 9 | 0 | 0.0 | 6.4 | 0.00 | 0.00 | 0.00 | 85 | 1015.2 |
| 20260507230220 | 9 | 128 | 3.2 | 16.1 | 0.00 | 0.00 | 0.00 | 85 | 1015.3 |
| 20260507225321 | 9 | 0 | 0.0 | 12.9 | 0.00 | 0.00 | 0.00 | 84 | 1015.3 |
| 20260507224420 | 10 | 0 | 0.0 | 6.4 | 0.00 | 0.00 | 0.00 | 84 | 1015.3 |
| 20260507223520 | 10 | 0 | 0.0 | 9.7 | 0.00 | 0.00 | 0.00 | 83 | 1015.4 |
| 20260507221720 | 10 | 0 | 0.0 | 12.9 | 0.00 | 0.00 | 0.00 | 83 | 1015.5 |
| 20260507220822 | 10 | 0 | 0.0 | 9.7 | 0.00 | 0.00 | 0.00 | 82 | 1015.5 |
| 20260507215922 | 10 | 0 | 0.0 | 9.7 | 0.00 | 0.00 | 0.00 | 82 | 1015.5 |
| 20260507215021 | 10 | 0 | 0.0 | 6.4 | 0.00 | 0.00 | 0.00 | 81 | 1015.4 |
| 20260507213222 | 10 | 0 | 0.0 | 6.4 | 0.00 | 0.00 | 0.00 | 81 | 1015.4 |
| 20260507212322 | 10 | 0 | 0.0 | 9.7 | 0.00 | 0.00 | 0.00 | 81 | 1015.3 |
| 20260507211421 | 10 | 0 | 0.0 | 3.2 | 0.00 | 0.00 | 0.00 | 81 | 1015.3 |
| 20260507203821 | 10 | 0 | 0.0 | 3.2 | 0.00 | 0.00 | 0.00 | 80 | 1015.1 |
| 20260507202920 | 10 | 0 | 0.0 | 0.0 | 0.00 | 0.00 | 0.00 | 79 | 1015.0 |
| 20260507202022 | 11 | 0 | 0.0 | 3.2 | 0.00 | 0.00 | 0.00 | 78 | 1014.9 |
| 20260507201121 | 11 | 0 | 0.0 | 3.2 | 0.00 | 0.00 | 0.00 | 77 | 1014.8 |
| 20260507195321 | 11 | 0 | 0.0 | 12.9 | 0.00 | 0.00 | 0.00 | 76 | 1014.5 |
| 20260507194420 | 12 | 0 | 0.0 | 6.4 | 0.00 | 0.00 | 0.00 | 75 | 1014.4 |
| 20260507193521 | 12 | 0 | 0.0 | 12.9 | 0.00 | 0.00 | 0.00 | 74 | 1014.3 |
| 20260507192621 | 12 | 0 | 0.0 | 9.7 | 0.00 | 0.00 | 0.00 | 74 | 1014.4 |
| 20260507191721 | 12 | 0 | 0.0 | 6.4 | 0.00 | 0.00 | 0.00 | 74 | 1014.5 |
| 20260507190821 | 12 | 0 | 0.0 | 9.7 | 0.00 | 0.00 | 0.00 | 72 | 1014.4 |
| 20260507185922 | 12 | 0 | 0.0 | 3.2 | 0.00 | 0.00 | 0.00 | 71 | 1014.4 |
| 20260507185020 | 13 | 0 | 0.0 | 6.4 | 0.00 | 0.00 | 0.00 | 69 | 1014.3 |
| 20260507183221 | 13 | 0 | 0.0 | 0.0 | 0.00 | 0.00 | 0.00 | 67 | 1014.2 |
| 20260507182321 | 14 | 0 | 0.0 | 3.2 | 0.00 | 0.00 | 0.00 | 66 | 1014.3 |
| 20260507181422 | 14 | 0 | 0.0 | 6.4 | 0.00 | 0.00 | 0.00 | 64 | 1014.2 |
| 20260507180522 | 15 | 0 | 0.0 | 6.4 | 0.00 | 0.00 | 0.00 | 63 | 1014.1 |
| 20260507175620 | 15 | 140 | 0.0 | 12.9 | 0.00 | 0.00 | 0.00 | 62 | 1014.0 |
| 20260507174721 | 15 | 0 | 0.0 | 12.9 | 0.00 | 0.00 | 0.00 | 60 | 1014.0 |
| 20260507173822 | 15 | 0 | 0.0 | 3.2 | 0.00 | 0.00 | 0.00 | 62 | 1014.0 |
| 20260507172921 | 15 | 0 | 0.0 | 6.4 | 0.00 | 0.00 | 0.00 | 63 | 1014.0 |
| 20260507172021 | 15 | 111 | 3.2 | 12.9 | 0.00 | 0.00 | 0.00 | 61 | 1014.0 |
| 20260507171121 | 15 | 139 | 3.2 | 19.3 | 0.00 | 0.00 | 0.00 | 59 | 1014.1 |
| 20260507170220 | 16 | 127 | 1.6 | 22.5 | 0.00 | 0.00 | 0.00 | 57 | 1014.0 |
| 20260507164422 | 16 | 132 | 3.2 | 16.1 | 0.00 | 0.00 | 0.00 | 56 | 1014.1 |
| 20260507163520 | 16 | 137 | 0.0 | 19.3 | 0.00 | 0.00 | 0.00 | 54 | 1014.1 |
| 20260507162621 | 17 | 0 | 0.0 | 6.4 | 0.00 | 0.00 | 0.00 | 55 | 1014.1 |
| 20260507161721 | 16 | 0 | 0.0 | 12.9 | 0.00 | 0.00 | 0.00 | 56 | 1014.1 |
| 20260507160822 | 16 | 0 | 0.0 | 12.9 | 0.00 | 0.00 | 0.00 | 56 | 1014.1 |
| 20260507155921 | 17 | 0 | 0.0 | 9.7 | 0.00 | 0.00 | 0.00 | 53 | 1014.2 |
| 20260507155021 | 17 | 0 | 0.0 | 6.4 | 0.00 | 0.00 | 0.00 | 54 | 1014.2 |
| 20260507154121 | 16 | 0 | 0.0 | 6.4 | 0.00 | 0.00 | 0.00 | 54 | 1014.3 |
| 20260507153221 | 16 | 0 | 0.0 | 12.9 | 0.00 | 0.00 | 0.00 | 56 | 1014.3 |
| 20260507152322 | 16 | 0 | 0.0 | 12.9 | 0.00 | 0.00 | 0.00 | 58 | 1014.4 |
| 20260507151421 | 16 | 0 | 0.0 | 16.1 | 0.00 | 0.00 | 0.00 | 58 | 1014.3 |
| 20260507150522 | 15 | 0 | 0.0 | 9.7 | 0.00 | 0.00 | 0.00 | 58 | 1014.3 |
| 20260507142921 | 16 | 0 | 0.0 | 9.7 | 0.00 | 0.00 | 0.00 | 55 | 1014.5 |
| 20260507141121 | 15 | 0 | 0.0 | 9.7 | 0.00 | 0.00 | 0.00 | 56 | 1014.6 |
| 20260507140221 | 15 | 0 | 0.0 | 6.4 | 0.00 | 0.00 | 0.00 | 58 | 1014.7 |
| 20260507135321 | 15 | 0 | 0.0 | 6.4 | 0.00 | 0.00 | 0.00 | 57 | 1014.7 |
| 20260507133521 | 15 | 0 | 0.0 | 9.7 | 0.00 | 0.00 | 0.00 | 60 | 1014.7 |
| 20260507132621 | 14 | 0 | 0.0 | 9.7 | 0.00 | 0.00 | 0.00 | 59 | 1014.8 |
| 20260507131721 | 14 | 128 | 0.0 | 16.1 | 0.00 | 0.00 | 0.00 | 58 | 1014.8 |
| 20260507125922 | 15 | 148 | 1.6 | 16.1 | 0.00 | 0.00 | 0.00 | 55 | 1014.9 |
| 20260507125021 | 16 | 148 | 1.6 | 9.7 | 0.00 | 0.00 | 0.00 | 54 | 1014.7 |
| 20260507122321 | 16 | 71 | 0.0 | 9.7 | 0.00 | 0.00 | 0.00 | 51 | 1014.9 |
| 20260507121421 | 16 | 68 | 3.2 | 16.1 | 0.00 | 0.00 | 0.00 | 53 | 1014.9 |
| 20260507120522 | 15 | 138 | 1.6 | 16.1 | 0.00 | 0.00 | 0.00 | 54 | 1015.0 |
| 20260507115622 | 16 | 0 | 0.0 | 9.7 | 0.00 | 0.00 | 0.00 | 55 | 1015.1 |
| 20260507114721 | 15 | 0 | 0.0 | 6.4 | 0.00 | 0.00 | 0.00 | 56 | 1015.0 |
| 20260507113822 | 15 | 0 | 0.0 | 9.7 | 0.00 | 0.00 | 0.00 | 57 | 1015.1 |
| 20260507112921 | 15 | 0 | 0.0 | 6.4 | 0.00 | 0.00 | 0.00 | 59 | 1015.1 |
| 20260507112021 | 15 | 0 | 0.0 | 12.9 | 0.00 | 0.00 | 0.00 | 60 | 1015.2 |
| 20260507110221 | 15 | 141 | 3.2 | 16.1 | 0.00 | 0.00 | 0.00 | 58 | 1015.2 |
| 20260507104421 | 16 | 0 | 0.0 | 6.4 | 0.00 | 0.00 | 0.00 | 60 | 1015.1 |
| 20260507103521 | 15 | 0 | 0.0 | 16.1 | 0.00 | 0.00 | 0.00 | 62 | 1015.1 |
| 20260507102621 | 15 | 0 | 0.0 | 12.9 | 0.00 | 0.00 | 0.00 | 63 | 1015.1 |
| 20260507101722 | 14 | 0 | 0.0 | 12.9 | 0.00 | 0.00 | 0.00 | 64 | 1015.1 |
| 20260507100821 | 14 | 0 | 0.0 | 12.9 | 0.00 | 0.00 | 0.00 | 66 | 1015.2 |
| 20260507095921 | 13 | 0 | 0.0 | 3.2 | 0.00 | 0.00 | 0.00 | 69 | 1015.3 |
| 20260507095021 | 12 | 0 | 0.0 | 3.2 | 0.00 | 0.00 | 0.00 | 75 | 1015.3 |
| 20260507094121 | 12 | 0 | 0.0 | 3.2 | 0.00 | 0.00 | 0.00 | 72 | 1015.3 |
| 20260507093222 | 13 | 0 | 0.0 | 6.4 | 0.00 | 0.00 | 0.00 | 70 | 1015.3 |
| 20260507092321 | 13 | 0 | 0.0 | 3.2 | 0.00 | 0.00 | 0.00 | 69 | 1015.4 |
| 20260507091421 | 13 | 0 | 0.0 | 6.4 | 0.00 | 0.00 | 0.00 | 72 | 1015.3 |
| 20260507090522 | 13 | 0 | 0.0 | 9.7 | 0.00 | 0.00 | 0.00 | 72 | 1015.3 |
| 20260507085621 | 13 | 0 | 0.0 | 6.4 | 0.00 | 0.00 | 0.00 | 73 | 1015.3 |
| 20260507084722 | 12 | 0 | 0.0 | 6.4 | 0.00 | 0.00 | 0.00 | 77 | 1015.4 |
| 20260507083821 | 12 | 0 | 0.0 | 3.2 | 0.00 | 0.00 | 0.00 | 76 | 1015.4 |
| 20260507082021 | 11 | 0 | 0.0 | 6.4 | 0.00 | 0.00 | 0.00 | 81 | 1015.4 |
| 20260507081122 | 11 | 0 | 0.0 | 6.4 | 0.00 | 0.00 | 0.00 | 82 | 1015.3 |
| 20260507080221 | 10 | 0 | 0.0 | 6.4 | 0.00 | 0.00 | 0.00 | 83 | 1015.4 |
| 20260507075322 | 10 | 0 | 0.0 | 9.7 | 0.00 | 0.00 | 0.00 | 84 | 1015.3 |
| 20260507074421 | 10 | 0 | 0.0 | 9.7 | 0.00 | 0.00 | 0.00 | 85 | 1015.3 |
| 20260507071722 | 7 | 0 | 0.0 | 6.4 | 0.00 | 0.00 | 0.00 | 92 | 1015.2 |
| 20260507070822 | 7 | 0 | 0.0 | 3.2 | 0.00 | 0.00 | 0.00 | 92 | 1015.2 |
| 20260507065921 | 7 | 0 | 0.0 | 0.0 | 0.00 | 0.00 | 0.00 | 92 | 1015.2 |
| 20260507065022 | 6 | 0 | 0.0 | 3.2 | 0.00 | 0.00 | 0.00 | 92 | 1015.2 |
| 20260507064121 | 6 | 0 | 0.0 | 0.0 | 0.00 | 0.00 | 0.00 | 92 | 1015.2 |
| 20260507063222 | 6 | 0 | 0.0 | 3.2 | 0.00 | 0.00 | 0.00 | 92 | 1015.1 |
| 20260507062321 | 6 | 0 | 0.0 | 6.4 | 0.00 | 0.00 | 0.00 | 92 | 1015.0 |
| 20260507061421 | 5 | 0 | 0.0 | 3.2 | 0.00 | 0.00 | 0.00 | 92 | 1014.9 |
| 20260507060521 | 5 | 0 | 0.0 | 3.2 | 0.00 | 0.00 | 0.00 | 92 | 1014.9 |
| 20260507055622 | 5 | 0 | 0.0 | 0.0 | 0.00 | 0.00 | 0.00 | 92 | 1014.8 |
| 20260507054721 | 5 | 0 | 0.0 | 0.0 | 0.00 | 0.00 | 0.00 | 92 | 1014.9 |
| 20260507053821 | 5 | 0 | 0.0 | 0.0 | 0.00 | 0.00 | 0.00 | 92 | 1014.9 |
| 20260507052921 | 5 | 0 | 0.0 | 0.0 | 0.00 | 0.00 | 0.00 | 92 | 1014.8 |
| 20260507052021 | 5 | 0 | 0.0 | 0.0 | 0.00 | 0.00 | 0.00 | 92 | 1014.7 |
| 20260507051121 | 5 | 0 | 0.0 | 0.0 | 0.00 | 0.00 | 0.00 | 92 | 1014.7 |